STARLINK-34288

Last updated on Sat Jul 19 2025 00:02:07 GMT+0000 (Coordinated Universal Time)

1 64673U 25139K 25199.58335648 .00032119 00000+0 58365-3 0 9999 2 64673 53.1593 138.1581 0001000 91.0225 102.5621 15.49285970 4383
UTC large
Height (km)
Speed (km/s)
/
Latitude / Longitude
Inclination (degrees)
Orbital Period (minutes)
Azimuth
Elevation
Range (km)
Doppler Factor

Next 0 passes for location: London (51.5072 / 0.1276)

Sorry there are no passes over London.